Weather Roundup
Issued by NWS Chicago, IL

Home | Current Version | Previous Version | Text Only | Print | Product List | Glossary On
Versions: 1 2 3 4 5 6 7 8 9 10 11 12 13 14 15 16 17 18 19 20 21 22 23 24 25 26 27 28 29 30 31 32 33 34 35 36 37 38 39 40 41 42 43 44 45 46 47 48 49 50
000
NZUS59 KLOT 202308
HRRLOT

CHICAGO AREA WEATHER ROUNDUP
NATIONAL WEATHER SERVICE CHICAGO/ROMEOVILLE IL
500 PM CST SAT JAN 20 2018

NOTE: "FAIR" INDICATES FEW OR NO CLOUDS BELOW 12,000 FEET WITH NO
SIGNIFICANT WEATHER AND/OR OBSTRUCTIONS TO VISIBILITY.

* THESE STATIONS ARE NOT UNDER NWS QUALITY CONTROL. THEY ALSO MAY NOT
  REPORT WEATHER SUCH AS PRECIPITATION OR FOG.

ILZ005-006-012>014-019>023-210000-
NORTHEAST ILLINOIS

CITY           SKY/WX    TMP DP  RH WIND       PRES   REMARKS
OHARE            N/A     42  33  70 SW5       29.95R
MIDWAY         MOCLDY    43  36  76 S6        29.97R
AURORA           N/A     39  35  86 S8        29.95R
LANSING*       CLOUDY    40  38  91 SW3       29.99R
JOLIET*        CLOUDY    44  39  83 S5        29.97S
WAUKEGAN         N/A     38  30  73 SW8       29.95R
DUPAGE AIRPORT   N/A     40  35  83 SE3       29.95R
WHEELING         N/A     44  33  65 S3        29.97R
KANKAKEE*      CLOUDY   N/A N/A N/A SW5       30.01R
MORRIS*        CLOUDY    41  37  86 SW7       29.97R
LEWIS AIRPORT* CLOUDY    41  37  86 S8        29.97R
NORTHERLY ISL    N/A     44  34  67 S6          N/A
$$

WIZ051-052-058>065-066-070>072-210000-
SOUTHEAST WISCONSIN

CITY           SKY/WX    TMP DP  RH WIND       PRES   REMARKS
MILWAUKEE        N/A     39  31  72 E3        29.94R
KENOSHA*         N/A     41  30  65 SW6       29.94R
RACINE*          N/A     43  32  65 SW5       29.95R
BURLINGTON       N/A     38  30  72 SW5       29.94S
WAUKESHA       CLEAR     45  30  57 CALM      29.93R
WEST BEND        N/A     37  30  75 SE5       29.92S
$$

INZ001>003-010>013-019-020-210000-
NORTHWEST INDIANA

CITY           SKY/WX    TMP DP  RH WIND       PRES   REMARKS
GARY*          CLOUDY    45  37  76 S5        29.98R
MICHIGAN CITY* NOT AVBL
RENSSELAER*    NOT AVBL
VALPARAISO     CLOUDY    41  36  82 SW7       29.99R
$$

LMZ740>746-210000-
SOUTHERN LAKE MICHIGAN

STATION/POSITION TIME  SKY/WX   TEMP WIND        PRES    VSBY
                                AIR  DIR/SP/G
                 (UTC)          (F)  (DEG/KT/KT) (MB)    (MI)
HARRISON CRIB    2240            46  210/ 13/ 14   N/A
BURNHAM HARBOR   2300            44  190/  3/ 10   N/A
CALUMET HARBOR   2248            42  180/  7/ 12 1014.3R
BURNS HARBOR     2240            42  190/ 10/ 12 1015.9R
MICHIGAN CITY    2240            42  190/  8/ 10   N/A
$$

ABBREVIATIONS USED IN REMARKS
   TC - TEMPERATURE IN CELSIUS
  WCI - WIND CHILL INDEX
   HX - HEAT INDEX
  VSB - VISIBILITY
$$




USA.gov is the U.S. government's official web portal to all federal, state and local government web resources and services.